Location: Gebenbach
(49.5378°N, 11.8735°E)
Time: 12:20:40
(UTC+00:00)

SeaSat 1 - Pass Details

Date: 29 October 2020
Orbit: 744 x 747 km, 108.0° (Epoch: 24 November)

Event Time Altitude Azimuth Distance (km) Brightness Sun altitude
Exits shadow 19:40:26 26° 278° (W) 1,454 4.4 -36.5°
Drops below altitude 10° 19:43:26 10° 312° (NW) 2,273 5.6 -37.0°
Sets 19:45:59 0° 323° (NW) 3,203 6.5 -37.4°
